Theta_e
323 324 325 325 325 325 327 328 328 328 328 327 327 326 325 325 324 317 305 312 316 326 323 312 311 311 313 310 311 311 303 301 302 302 302 307 305 308 309 307 310 313 311 319 331
323 323 324 324 324 325 326 326 327 327 327 327 327 325 324 324 314 308 318 324 326 327 310 309 308 309 306 307 308 306 302 303 307 307 304 306 307 306 305 306 306 311 316 326 330
322 323 323 324 324 324 325 326 325 326 326 326 325 324 324 320 305 306 326 327 328 327 313 311 311 308 305 307 306 306 303 306 305 306 307 306 306 308 306 304 307 307 311 324 327
322 322 323 323 324 324 325 325 324 324 324 324 324 323 322 313 294 309 328 330 329 319 310 309 308 304 303 302 306 301 303 305 304 304 305 305 307 305 307 307 309 311 313 321 325
321 320 321 322 323 324 324 324 323 323 323 323 323 322 314 302 302 315 326 326 319 312 306 306 304 304 300 302 303 302 302 303 304 303 305 305 304 305 305 309 309 309 312 318 322
320 319 320 320 322 324 324 323 322 322 322 322 323 322 309 296 311 316 316 314 312 310 307 307 305 307 303 302 302 304 302 302 303 303 302 303 303 303 306 308 308 306 309 314 319
319 318 319 320 321 322 323 322 321 321 321 321 322 314 305 301 312 315 313 312 311 310 306 308 308 305 305 301 302 302 299 300 301 301 301 302 300 300 306 304 304 304 306 310 314
318 317 318 319 320 321 322 321 321 321 321 322 322 313 299 312 313 310 312 310 311 311 310 309 308 305 305 304 301 298 300 295 300 300 301 301 297 304 305 303 303 305 306 307 310
317 317 318 318 319 320 320 320 320 320 320 321 313 309 297 312 305 309 311 307 308 310 310 308 309 304 302 298 296 297 293 294 294 299 299 299 297 302 302 302 302 304 305 305 306
317 317 317 318 318 319 319 318 319 319 317 315 309 302 302 302 307 307 310 310 306 307 305 305 303 299 299 296 290 292 293 294 294 296 297 297 297 300 301 301 302 304 305 304 304
317 317 317 318 318 319 317 314 305 303 306 299 300 298 300 306 308 305 308 306 306 304 297 302 296 293 296 297 297 297 294 293 296 296 297 296 297 299 302 302 302 303 305 306 306
317 317 317 317 318 318 314 304 303 305 297 302 301 302 306 306 299 303 307 301 300 295 300 297 293 298 299 295 295 296 294 293 294 296 296 296 295 299 301 301 303 303 304 306 307
317 316 317 317 317 315 311 306 312 309 296 297 300 301 303 304 299 299 303 302 298 296 296 293 295 298 296 294 293 294 293 293 292 294 295 294 293 296 300 301 302 303 304 305 305
316 316 316 316 311 311 308 311 315 311 292 292 295 299 302 303 297 303 304 301 297 294 296 295 295 295 294 293 295 290 295 294 292 292 288 294 287 295 298 298 298 301 302 302 304
316 316 316 316 310 307 308 315 316 306 280 294 294 303 302 297 298 299 304 300 294 294 295 292 292 293 293 294 296 292 295 294 293 291 291 291 288 293 296 295 298 300 301 302 303
315 315 315 314 315 313 317 316 310 289 281 290 294 293 295 296 296 299 299 301 299 294 295 293 296 296 295 295 296 295 294 293 293 292 285 290 290 290 294 295 297 299 300 302 303
311 314 314 314 308 316 317 309 290 283 293 289 289 293 294 291 293 295 294 292 291 287 288 291 292 294 296 292 295 294 291 285 283 283 283 288 287 291 296 295 298 298 300 303 303
307 308 307 308 310 317 312 297 282 289 290 294 293 292 290 292 292 293 292 290 294 292 289 286 284 291 295 294 291 292 292 287 281 281 284 285 284 290 297 298 297 298 300 303 303
305 303 303 303 309 314 301 286 286 290 294 292 292 288 289 291 291 291 291 291 293 293 288 286 286 293 294 294 295 291 287 292 285 281 285 287 290 295 297 296 296 297 300 302 301
299 299 298 303 307 309 297 289 291 297 296 294 288 290 286 288 289 290 289 294 292 294 293 291 284 290 291 294 293 292 294 286 288 282 281 285 286 288 291 294 296 297 300 299 300
298 292 298 303 306 299 289 291 294 299 298 294 292 289 290 288 289 289 290 292 295 291 293 292 291 286 290 289 289 289 288 289 289 289 285 282 286 293 295 297 296 298 300 299 300
295 288 299 303 288 291 288 294 296 297 299 297 296 293 291 291 288 289 289 292 296 294 288 293 290 285 287 290 292 293 291 290 286 283 286 285 287 294 294 298 299 298 299 300 300
291 290 298 299 285 285 288 292 296 296 296 296 295 295 294 291 288 291 292 295 296 293 291 292 290 282 284 288 290 288 290 292 292 290 286 285 287 293 295 298 299 298 298 298 299
291 285 290 293 286 287 287 287 290 297 296 295 295 295 293 291 292 290 291 294 296 295 295 295 292 287 283 286 289 286 289 289 290 286 286 286 289 291 294 296 297 298 298 299 298
290 286 287 285 286 287 287 287 286 288 292 295 292 293 292 287 289 289 292 292 295 295 295 294 286 289 289 289 290 290 289 288 287 289 286 288 289 293 295 296 298 299 299 297 297
288 286 288 285 288 287 287 285 285 286 288 287 288 293 293 289 290 288 291 291 291 294 293 293 285 287 284 288 288 287 290 290 289 289 290 290 290 295 297 299 299 298 298 296 296
292 293 290 285 286 285 286 287 286 287 288 291 290 288 288 291 295 296 297 296 295 292 291 290 286 285 283 286 286 283 286 289 290 291 291 287 292 295 294 295 297 298 298 296 296
Wind_Speed
17 16 16 15 15 13 12 13 13 14 15 14 14 8 3 3 4 5 7 6 4 5 6 7 7 6 5 5 3 2 8 10 11 10 8 11 10 4 3 3 3 5 4 5 17
18 16 16 16 16 13 13 12 12 12 12 11 11 9 10 9 9 12 10 9 7 7 8 13 13 10 6 5 5 7 10 13 6 7 11 14 10 10 7 7 6 7 7 7 14
19 16 15 16 14 15 14 14 13 13 12 12 12 12 12 14 11 16 9 14 12 11 13 12 10 11 9 5 7 7 10 5 6 5 3 11 8 7 7 8 8 11 12 13 13
19 17 15 15 15 14 14 13 12 12 13 13 12 11 10 6 10 2 2 13 12 12 10 13 10 9 9 10 7 7 2 1 5 4 5 11 8 7 9 7 6 4 12 14 15
18 18 16 15 14 14 14 13 12 11 12 11 11 13 7 6 14 7 4 10 11 10 12 15 16 12 10 11 8 7 7 3 4 5 4 6 6 1 8 7 6 5 5 12 13
21 18 16 15 15 15 14 14 13 10 10 11 10 9 6 16 2 6 8 9 11 15 12 13 8 12 8 9 14 5 8 7 5 6 4 6 5 4 3 3 7 5 7 10 12
20 19 17 15 16 14 14 13 15 11 9 12 13 7 7 11 1 7 7 9 10 12 11 12 6 11 10 9 2 8 8 5 6 4 3 2 7 10 9 5 5 7 9 9 10
24 21 18 16 16 15 14 13 13 11 10 9 10 5 6 2 4 6 9 8 8 8 9 4 2 5 3 11 7 8 5 8 7 5 3 5 11 11 3 6 11 12 9 9 12
22 21 20 17 16 15 14 12 10 10 9 9 8 6 5 4 6 9 10 9 10 7 5 5 3 2 5 13 8 9 12 13 6 5 3 9 6 6 2 4 5 7 8 9 10
23 21 22 18 17 15 13 13 10 12 7 7 3 6 6 6 6 7 6 9 6 12 9 8 5 7 9 14 16 15 17 8 14 8 8 8 12 6 5 4 6 8 6 8 11
24 23 22 20 18 17 17 10 10 7 11 4 8 0 6 6 4 5 6 8 9 14 11 11 11 17 16 15 4 13 15 11 8 4 8 11 14 15 12 10 11 10 10 10 10
24 24 23 21 19 19 16 11 17 5 11 4 1 3 3 2 5 8 7 11 13 17 10 9 16 15 6 6 5 7 14 11 5 4 4 3 12 13 13 14 14 13 12 12 10
25 24 24 21 17 13 15 15 2 5 7 5 3 4 4 3 3 12 10 4 15 17 16 12 8 11 9 10 9 7 12 10 1 5 1 5 13 14 12 14 11 10 10 8 7
24 24 25 21 12 13 15 12 3 3 8 10 7 6 5 2 3 2 2 4 3 17 15 8 5 12 12 15 13 9 3 7 9 6 4 2 6 4 8 9 8 8 7 6 4
24 24 25 21 9 16 8 8 4 3 8 17 8 2 4 4 9 6 1 3 10 11 8 7 10 14 14 14 10 4 5 6 5 4 3 7 6 6 4 7 10 5 4 2 2
19 24 26 11 5 9 8 8 2 6 9 9 9 12 11 5 3 6 5 4 2 6 3 5 2 5 4 7 4 13 11 8 5 3 6 11 9 6 8 4 11 9 6 5 4
14 15 18 1 7 5 8 5 5 9 12 11 11 14 21 10 7 11 17 12 11 10 12 5 6 3 6 10 7 7 14 4 5 5 6 3 5 10 1 4 6 10 7 7 5
12 8 6 4 1 7 6 7 10 16 15 6 11 15 20 14 6 8 16 16 13 6 14 13 8 11 9 5 10 14 15 5 7 6 4 3 8 5 1 5 4 1 5 7 7
9 2 3 2 2 4 12 14 14 16 16 13 16 21 14 14 6 11 17 20 16 12 9 12 7 3 1 0 12 8 8 3 6 2 1 7 6 8 8 6 6 7 8 8 6
1 2 2 2 3 5 12 13 14 2 17 18 12 17 22 22 11 16 18 16 13 7 6 5 6 1 3 2 1 6 12 5 4 5 5 5 7 8 6 10 10 10 10 8 7
2 3 3 1 4 6 16 14 10 6 9 17 12 15 20 17 18 15 16 2 14 9 3 7 3 4 5 11 14 6 6 4 3 3 4 3 5 3 2 10 11 11 10 10 9
0 2 4 4 5 2 9 22 8 8 3 4 5 4 14 17 13 13 15 8 10 13 10 1 6 5 11 4 4 6 11 12 6 6 5 3 4 2 1 6 11 12 11 10 9
3 2 3 3 5 4 2 4 15 8 7 7 9 3 5 14 8 6 8 2 6 9 15 9 5 5 2 1 2 9 9 15 9 3 6 6 5 2 5 8 11 13 12 11 11
2 3 1 3 0 4 6 4 10 6 5 3 4 3 8 10 2 12 10 4 5 3 3 4 3 10 16 7 11 10 15 10 12 5 12 11 13 6 9 12 11 11 12 12 10
2 3 2 4 4 3 1 7 6 9 3 5 2 9 9 8 6 9 9 8 6 5 2 4 7 3 2 3 2 6 15 16 17 23 14 22 17 13 13 14 15 12 11 12 11
2 3 2 1 4 5 3 4 5 4 6 5 7 9 7 8 13 12 12 9 8 8 8 4 4 4 2 4 4 1 8 18 22 23 21 18 14 4 9 11 11 12 13 13 12
1 1 2 2 3 6 2 2 4 3 4 8 11 6 7 3 6 8 4 8 7 10 10 9 7 4 7 4 2 5 17 16 15 17 18 20 21 10 7 11 11 13 14 12 11
Wind_Direction
202 209 201 188 200 194 203 191 192 187 189 189 199 208 192 200 207 186 245 249 200 178 257 168 196 194 198 169 207 268 227 208 206 207 146 156 176 190 49 148 195 156 33 76 134
193 211 199 187 187 188 194 191 195 192 191 182 179 175 179 193 230 224 216 199 230 194 225 188 190 178 187 189 187 227 216 213 190 188 159 169 199 166 182 162 195 179 112 139 154
186 199 195 183 185 192 188 185 185 186 178 175 165 177 187 194 248 254 216 197 191 192 241 220 196 192 191 171 199 189 207 125 153 125 171 161 189 172 203 189 193 197 166 163 172
184 190 195 190 192 183 185 179 173 178 171 173 169 168 179 209 201 122 280 177 178 190 239 210 173 188 194 196 182 196 132 187 143 139 155 170 152 193 216 76 29 112 155 169 182
187 185 189 190 187 183 177 170 172 179 168 169 165 152 172 191 231 119 149 139 165 179 214 211 175 192 204 192 187 230 137 119 130 135 158 129 176 203 214 153 114 104 167 182 192
184 181 184 185 182 179 176 168 169 182 164 165 166 153 195 214 67 149 160 152 181 186 206 241 209 181 198 191 206 150 144 134 165 138 127 200 161 237 175 135 190 185 194 204 207
182 174 174 180 176 173 167 168 166 174 168 171 167 185 216 210 233 155 174 184 191 189 204 227 292 189 157 154 128 138 133 155 176 172 114 248 215 225 149 145 187 207 221 220 216
178 175 173 180 168 163 163 163 162 159 162 173 170 199 237 83 151 149 191 173 177 202 227 193 216 104 227 122 130 177 173 188 154 183 132 219 244 214 122 217 239 243 226 212 218
175 171 166 169 166 152 156 157 150 151 157 157 168 224 215 121 187 178 194 172 160 148 145 139 208 133 138 172 161 199 204 208 166 215 150 221 238 123 201 201 243 244 238 217 231
170 166 160 162 153 147 150 154 139 138 151 183 244 194 167 198 152 157 165 176 156 148 146 183 187 189 187 191 195 188 224 198 214 177 216 203 249 183 195 220 241 250 226 217 223
164 160 159 159 151 159 149 141 155 165 189 195 189 241 143 95 126 179 151 160 161 178 178 194 200 206 189 213 244 212 209 207 196 103 223 224 250 252 245 225 247 243 235 224 219
159 160 156 152 159 172 184 180 181 138 175 254 232 91 86 304 130 165 159 173 182 183 176 175 217 202 149 104 165 195 204 191 120 132 224 242 262 260 251 245 240 244 237 231 225
158 158 149 149 156 181 195 204 14 169 163 174 211 143 135 219 143 171 179 189 190 175 193 196 195 132 158 173 166 186 199 169 193 145 162 291 266 241 236 248 251 252 257 268 258
155 154 142 143 159 180 200 209 232 256 189 171 194 179 140 190 138 4 194 164 195 191 191 229 138 175 187 190 191 188 138 136 137 172 234 226 269 164 210 227 202 209 207 217 225
154 149 146 168 152 179 176 173 155 241 216 153 150 91 134 172 124 195 81 180 173 156 187 153 166 175 185 186 190 155 160 156 148 193 293 187 254 238 122 247 216 157 146 110 60
148 149 157 193 146 167 145 136 168 213 222 154 141 170 152 146 127 122 155 70 40 120 114 93 343 195 170 84 212 137 121 108 128 189 245 229 224 242 219 232 135 144 122 118 101
92 162 158 127 153 162 154 139 170 213 131 160 181 176 170 158 147 198 180 174 171 159 176 134 154 119 158 107 135 189 167 154 191 195 238 63 204 251 142 150 173 150 125 111 121
71 102 76 70 17 176 167 172 211 189 184 149 162 174 183 149 163 197 177 192 224 238 159 179 188 181 177 209 177 193 194 173 188 192 168 106 228 232 54 85 129 175 118 119 115
35 52 95 23 2 200 169 195 208 179 163 147 154 160 176 184 153 170 197 195 198 199 161 188 160 90 186 253 157 170 196 71 110 52 227 194 243 275 205 226 199 169 155 130 114
151 97 46 326 281 170 192 203 206 355 136 163 170 188 182 182 169 188 183 201 198 200 303 167 111 151 112 209 171 215 141 152 224 173 226 211 257 246 208 188 170 164 155 132 129
153 119 143 269 206 164 205 193 189 149 171 184 176 186 194 183 189 191 187 140 182 162 288 143 98 119 157 211 179 157 183 210 219 193 205 224 226 36 244 163 165 160 153 149 141
354 74 344 347 77 242 213 208 213 165 204 201 156 149 197 179 192 192 194 218 171 158 175 167 109 147 198 53 353 265 213 184 184 196 243 66 254 97 115 154 157 153 152 144 144
104 93 19 25 183 192 101 240 238 183 196 179 185 174 156 173 165 170 184 95 159 176 178 175 157 106 74 246 208 226 202 214 220 43 193 177 237 142 151 159 153 158 158 160 156
158 134 96 140 252 159 142 183 189 214 166 214 132 118 128 169 87 180 157 154 155 176 42 137 129 198 205 218 144 204 200 197 203 189 214 222 236 167 170 171 173 172 169 163 166
322 82 24 166 213 126 101 158 160 172 162 155 154 219 172 141 156 183 156 135 160 155 134 174 187 163 75 57 5 191 190 183 199 223 215 236 235 235 187 186 191 177 171 170 173
128 137 142 81 126 157 196 178 175 146 158 172 222 205 209 179 195 181 161 166 163 175 169 189 154 116 121 104 76 305 208 203 214 226 234 240 249 81 171 193 186 185 180 184 181
74 54 285 149 166 169 207 139 153 144 10 134 149 117 109 92 64 138 93 88 134 163 166 159 135 151 199 131 98 270 219 205 216 226 229 230 236 168 173 189 199 194 190 188 174